Saint Petersburg, FL

2:43 PM EST on December 05, 2016 (GMT -0500)
Whitted

Weather History for KSPG - September, 2014

Change the Weather History Date:

Sunday, September 28, 2014

  Actual Average Record
Temperature  
Mean Temperature 80 °F -  
Max Temperature 88 °F 87 °F 94 °F (1976)
Min Temperature 75 °F 74 °F 68 °F (1962)
Cooling Degree Days 16    
Growing Degree Days 30 (Base 50)    
Moisture  
Dew Point 74 °F    
Average Humidity 89    
Maximum Humidity 97    
Minimum Humidity 63    
Precipitation  
Precipitation 1.26 in - - ()
Sea Level Pressure  
Sea Level Pressure 29.96 in    
Wind  
Wind Speed 11 mph (ESE)    
Max Wind Speed 33 mph    
Max Gust Speed 41 mph    
Visibility 8 miles    
Events Rain , Thunderstorm    
Averages and records for this station are not official NWS values.
T = Trace of Precipitation, MM = Missing Value Source: NWS Daily Summary

Daily Weather History Graph

Daily Weather History Graph

Search for Another Location

Airport or City:

Trip Planner

Search our weather history database for the weather conditions in past years. The results will help you decide how hot, cold, wet, or windy it might be!

Date:

Astronomy

Sep. 28, 2014 Rise Set
Actual Time 7:21 AM EDT 7:19 PM EDT
Civil Twilight 6:58 AM EDT 7:43 PM EDT
Nautical Twilight 6:31 AM EDT 8:10 PM EDT
Astronomical Twilight 6:04 AM EDT 8:37 PM EDT
Moon 11:14 AM EDT (9/28) 10:24 PM EDT (9/28)
Length of Visible Light 12h 44m
Length of Day
11h 58m
Waxing Crescent, 19% of the Moon is Illuminated
Sep 28
Waxing Crescent
Oct 1
First Quarter
Oct 8
Full
Oct 15
Last Quarter
Oct 23
New

Hourly Weather History & Observations

Time (EDT) Temp. Heat Index Dew Point Humidity Pressure Visibility Wind Dir Wind Speed Gust Speed Precip Events Conditions
12:18 AM 77.0 °F - 73.9 °F 90% 30.01 in 10.0 mi East 8.1 mph - 0.00 in Rain Light Rain
12:53 AM 77.0 °F - 73.9 °F 90% 29.99 in 10.0 mi East 8.1 mph - 0.00 in Rain Light Rain
1:53 AM 77.0 °F - 73.9 °F 90% 29.97 in 10.0 mi East 10.4 mph - 0.00 in   Partly Cloudy
2:53 AM 75.9 °F - 73.9 °F 94% 29.96 in 10.0 mi East 9.2 mph - N/A   Clear
3:07 AM 75.9 °F - 73.9 °F 94% 29.96 in 10.0 mi ENE 10.4 mph - N/A   Partly Cloudy
3:53 AM 75.9 °F - 75.0 °F 97% 29.96 in 10.0 mi ENE 11.5 mph - N/A   Clear
4:24 AM 75.9 °F - 75.0 °F 97% 29.96 in 10.0 mi ENE 11.5 mph - N/A   Mostly Cloudy
4:36 AM 75.9 °F - 75.0 °F 97% 29.95 in 10.0 mi ENE 11.5 mph - N/A   Overcast
4:53 AM 75.9 °F - 75.0 °F 97% 29.95 in 10.0 mi ENE 11.5 mph - N/A   Overcast
5:33 AM 75.9 °F - 75.0 °F 97% 29.96 in 10.0 mi East 10.4 mph - N/A   Overcast
5:53 AM 75.9 °F - 75.0 °F 97% 29.96 in 7.0 mi East 11.5 mph - N/A   Overcast
6:53 AM 75.9 °F - 75.0 °F 97% 29.97 in 10.0 mi East 13.8 mph - N/A   Overcast
7:53 AM 77.0 °F - 75.9 °F 96% 29.98 in 10.0 mi East 11.5 mph - N/A   Overcast
8:13 AM 77.0 °F - 75.9 °F 96% 29.98 in 10.0 mi ENE 11.5 mph - N/A   Overcast
8:25 AM 77.0 °F - 75.9 °F 96% 29.99 in 10.0 mi East 11.5 mph - N/A   Overcast
8:46 AM 77.0 °F - 75.9 °F 96% 29.99 in 10.0 mi East 12.7 mph - N/A   Overcast
8:53 AM 77.0 °F - 75.0 °F 94% 29.99 in 10.0 mi East 11.5 mph - N/A   Overcast
9:17 AM 78.1 °F - 75.0 °F 90% 30.00 in 10.0 mi East 11.5 mph - N/A   Scattered Clouds
9:53 AM 78.1 °F - 75.9 °F 93% 30.00 in 10.0 mi East 9.2 mph - N/A   Clear
10:08 AM 78.1 °F - 75.9 °F 93% 30.00 in 10.0 mi East 10.4 mph - N/A   Partly Cloudy
10:53 AM 79.0 °F - 75.9 °F 90% 30.00 in 10.0 mi East 8.1 mph - N/A   Clear
11:53 AM 80.1 °F 85.8 °F 77.0 °F 90% 29.99 in 10.0 mi East 6.9 mph - N/A   Clear
12:53 PM 84.0 °F 92.6 °F 75.9 °F 76% 29.98 in 10.0 mi ESE 6.9 mph - N/A   Clear
1:53 PM 84.0 °F 91.2 °F 73.9 °F 72% 29.95 in 10.0 mi SE 6.9 mph - N/A   Partly Cloudy
2:53 PM 84.9 °F 92.1 °F 73.9 °F 69% 29.92 in 10.0 mi SE 5.8 mph - N/A   Clear
3:53 PM 86.0 °F 93.0 °F 73.0 °F 65% 29.90 in 10.0 mi SE 3.5 mph - N/A   Clear
4:53 PM 86.0 °F 92.2 °F 72.0 °F 63% 29.89 in 10.0 mi Calm Calm - N/A   Clear
5:49 PM 84.2 °F 90.9 °F 73.4 °F 70% 29.89 in 10.0 mi West 11.5 mph - N/A Thunderstorm Clear
5:53 PM 84.9 °F 92.1 °F 73.9 °F 69% 29.89 in 10.0 mi West 10.4 mph - N/A Thunderstorm Partly Cloudy
6:16 PM 79.0 °F - 73.9 °F 84% 29.90 in 10.0 mi SSE 29.9 mph 36.8 mph N/A Thunderstorm Thunderstorm
6:25 PM 75.9 °F - 73.0 °F 91% 29.92 in 2.0 mi SSE 32.2 mph 41.4 mph 0.05 in Rain , Thunderstorm Light Thunderstorms and Rain
6:28 PM 75.9 °F - 73.9 °F 94% 29.92 in 0.8 mi SSE 33.4 mph 41.4 mph 0.16 in Rain , Thunderstorm Heavy Thunderstorms and Rain
6:31 PM 75.0 °F - 73.0 °F 94% 29.97 in 6.0 mi North 8.1 mph - 0.24 in Rain , Thunderstorm Light Rain
6:53 PM 75.0 °F - 72.0 °F 90% 29.95 in 1.5 mi SSE 18.4 mph 29.9 mph 0.57 in Rain , Thunderstorm Heavy Thunderstorms and Rain
7:05 PM 75.0 °F - 72.0 °F 90% 29.96 in 1.2 mi SSE 18.4 mph 23.0 mph 0.12 in Rain , Thunderstorm Heavy Thunderstorms and Rain
7:26 PM 75.9 °F - 73.9 °F 94% 29.96 in 1.2 mi SSE 16.1 mph - 0.44 in Rain Heavy Rain
7:34 PM 75.9 °F - 73.9 °F 94% 29.96 in 1.5 mi SSE 18.4 mph - 0.52 in Rain , Thunderstorm Heavy Rain
7:43 PM 75.9 °F - 73.9 °F 94% 29.95 in 2.5 mi SSE 19.6 mph - 0.56 in Rain Rain
7:50 PM 75.2 °F - 73.4 °F 94% 29.96 in 3.0 mi SSE 16.1 mph - 0.61 in Rain Heavy Rain
7:53 PM 75.9 °F - 73.0 °F 91% 29.95 in 3.0 mi SSE 16.1 mph - 0.62 in Rain Heavy Rain
8:53 PM 75.0 °F - 72.0 °F 90% 29.95 in 9.0 mi ESE 12.7 mph - 0.06 in Rain Light Rain
9:53 PM 75.9 °F - 73.0 °F 91% 29.96 in 10.0 mi East 8.1 mph - 0.01 in   Clear
10:53 PM 75.9 °F - 73.0 °F 91% 29.96 in 10.0 mi ESE 11.5 mph - N/A   Clear
11:53 PM 75.0 °F - 73.0 °F 94% 29.96 in 10.0 mi ESE 6.9 mph - N/A   Clear